Dewpoint
58 58 58 57 57 57 57 57 57 57 57 56 56 56 55 55 54 54 54 53 54 54 53 52 51 51 50 51 51 51 51 50 50 49 48 48 48 47 47 47 46 46 46 45 45 44 44 42 43 43 43 42 41 41 41 41 41 42 42 41 40 41 40 38 37 36 35 37 38 38 38 39 38 38 39 40 40 40 42 42 42 45 41 40 41
58 58 57 57 57 57 57 57 56 56 56 55 55 55 55 54 53 52 52 51 53 52 51 50 49 49 48 49 50 51 51 50 50 49 48 47 46 47 46 46 45 45 45 44 44 44 43 42 42 42 43 42 42 42 41 41 41 40 41 41 40 40 41 39 38 36 35 35 36 37 37 38 37 38 38 39 39 40 39 40 41 45 41 40 40
58 57 57 57 56 56 56 56 56 55 55 55 54 54 54 53 53 52 52 52 52 51 49 48 48 47 47 48 49 50 50 50 49 49 48 46 46 46 46 45 45 45 44 44 44 43 43 43 42 42 42 41 41 42 42 41 41 41 40 41 40 40 41 40 38 36 34 34 35 35 36 37 37 37 38 39 40 39 39 39 39 42 44 40 40
57 57 56 56 56 56 56 55 55 54 54 54 54 53 52 52 52 51 51 50 49 48 47 47 47 47 47 47 48 49 49 49 49 48 48 47 46 46 45 45 45 45 45 44 44 44 43 42 42 42 42 41 41 41 41 41 41 41 40 40 40 40 40 40 38 37 34 32 32 34 36 36 36 37 38 39 38 38 38 39 39 39 42 41 39
57 56 56 55 55 55 55 55 54 53 53 53 53 52 51 51 51 49 49 48 47 47 47 46 46 46 46 46 47 47 46 46 46 46 46 46 46 46 45 44 44 43 43 44 47 43 44 43 42 41 41 41 41 41 41 41 41 41 40 40 40 40 40 39 37 35 33 32 32 33 35 35 36 36 37 37 37 37 38 38 38 38 39 40 39
56 56 55 55 55 55 55 54 53 53 52 52 52 51 51 50 49 49 47 46 46 46 45 45 45 44 45 45 45 45 45 45 45 44 44 44 44 44 45 44 44 44 43 43 43 43 42 42 42 41 41 40 40 41 41 41 41 41 41 40 40 40 39 38 38 35 33 32 31 32 33 35 35 35 36 37 36 36 36 37 37 37 38 39 38
56 55 55 55 55 54 54 54 53 53 52 52 51 50 49 49 48 47 47 45 45 44 44 44 44 43 43 44 44 44 44 44 43 43 43 42 42 42 42 41 41 41 40 41 41 41 42 42 42 42 41 40 40 40 40 41 41 40 42 41 40 39 39 38 37 35 33 32 31 32 33 34 35 34 35 36 36 36 36 36 35 36 37 38 37
55 55 55 54 54 54 54 54 53 53 53 52 50 49 48 48 47 47 46 44 44 43 43 43 43 43 43 43 44 44 43 43 43 43 42 42 42 41 41 41 40 40 40 39 40 40 41 42 42 43 43 42 42 41 40 41 40 40 40 41 40 39 39 39 36 34 33 32 31 31 32 33 34 35 36 35 35 35 36 36 35 35 36 37 37
55 55 54 54 54 54 54 53 53 53 52 51 49 48 48 47 46 45 45 44 44 43 42 42 42 41 42 42 43 43 43 43 42 42 42 41 41 41 40 40 40 39 39 38 38 38 39 40 43 44 48 47 46 46 46 46 42 40 40 39 41 39 38 37 36 34 32 32 31 32 31 32 34 34 34 34 34 34 35 36 35 35 36 36 36
55 54 54 53 53 53 53 53 53 52 51 49 49 48 47 46 45 44 43 43 42 42 41 41 41 41 41 41 42 42 43 43 45 43 43 41 40 40 40 40 40 39 39 37 37 37 37 38 45 45 46 45 45 42 41 43 45 44 40 39 39 38 37 36 35 34 33 32 32 31 31 32 33 34 34 35 35 35 35 35 34 35 35 34 35
54 54 53 53 54 53 53 53 52 51 50 49 48 47 46 45 44 43 43 42 42 42 40 40 40 40 40 40 40 40 41 42 40 39 40 41 40 39 38 38 38 38 38 37 37 37 36 36 37 43 45 44 43 41 40 40 41 41 41 43 44 39 36 35 35 34 34 33 33 33 32 32 33 35 35 35 35 35 35 35 35 35 34 34 33
54 54 54 54 53 53 52 52 51 50 49 48 47 46 45 44 43 43 42 42 41 40 40 39 39 39 39 38 39 39 39 41 38 38 39 39 40 41 38 37 37 37 36 36 35 36 35 35 36 38 41 43 41 38 41 40 40 40 40 40 39 39 40 38 35 33 33 33 33 34 34 33 34 35 36 36 35 34 34 34 34 34 34 34 34
54 54 54 53 53 52 52 51 51 50 48 47 46 45 44 43 43 42 41 41 40 39 39 38 38 38 38 37 37 38 37 38 38 38 38 37 38 38 36 36 36 35 35 34 34 34 34 36 36 36 37 42 43 37 37 39 41 41 42 43 43 41 37 37 39 39 34 34 34 35 35 35 35 36 38 37 36 34 34 33 34 34 34 34 34
54 54 53 53 52 52 52 51 50 49 48 46 45 44 43 43 43 42 41 40 39 38 38 38 37 37 37 36 36 36 36 38 37 37 37 36 36 37 35 35 35 35 35 34 34 34 34 34 34 34 34 37 38 37 36 37 37 38 39 39 40 42 41 40 38 38 39 37 36 36 36 37 37 37 39 38 36 35 35 34 34 34 34 34 35
53 53 53 53 52 52 51 51 50 48 47 46 45 44 44 43 42 41 40 39 38 38 37 37 37 38 36 36 35 36 37 37 36 36 36 36 36 36 36 36 35 35 34 34 34 34 33 34 34 34 34 35 38 38 36 36 37 38 37 38 39 39 39 39 38 38 38 37 37 36 36 37 37 37 38 38 37 37 36 35 35 35 35 35 33
53 53 52 52 52 51 51 50 49 48 46 45 44 43 43 42 41 41 40 39 39 39 38 38 37 36 36 36 35 35 35 36 36 36 36 36 37 37 35 35 35 35 35 35 35 34 33 33 33 33 34 35 37 36 38 38 36 36 36 37 37 38 39 43 39 39 39 37 37 37 36 37 39 38 39 39 38 38 37 35 34 34 32 31 31
52 52 53 52 52 51 51 50 48 47 46 45 44 43 42 42 41 41 39 39 38 37 37 37 37 36 37 36 35 35 35 36 36 36 36 36 36 34 34 34 34 33 32 33 35 37 37 34 33 33 33 34 36 35 36 38 35 35 35 35 36 36 37 38 39 39 38 38 38 38 38 38 38 38 38 39 39 39 35 32 33 34 33 31 32
53 52 52 52 51 51 50 49 48 47 45 44 43 42 42 41 41 40 39 38 37 37 37 37 36 37 36 36 35 35 35 36 36 36 36 36 36 34 34 33 33 33 32 32 33 35 40 41 41 33 33 34 35 35 36 37 34 34 34 34 34 35 35 37 38 39 39 38 38 38 38 39 39 39 39 39 39 40 36 34 34 34 33 34 32
52 52 52 52 51 51 50 49 47 46 45 43 43 42 41 41 41 40 39 38 38 38 38 36 36 35 36 37 41 37 36 37 37 36 36 36 37 34 33 32 31 30 31 32 32 33 34 38 40 38 36 35 34 35 35 36 34 34 34 33 34 33 32 34 35 36 37 37 36 38 37 39 40 39 40 39 40 41 37 36 35 34 33 34 34
52 52 52 52 51 51 50 49 48 46 44 43 42 41 41 40 39 38 38 38 37 37 37 37 36 36 36 38 39 37 37 37 38 37 37 37 36 35 33 32 32 30 31 32 32 32 33 34 37 35 34 34 34 34 34 34 34 33 33 33 33 32 32 35 37 35 33 35 35 35 35 36 36 36 37 38 39 39 37 37 36 35 34 33 34
52 52 52 52 51 50 49 48 47 46 44 43 42 41 40 38 38 38 38 37 37 36 36 36 35 34 33 33 36 37 38 37 38 37 37 37 36 35 32 33 32 32 32 32 30 31 31 32 33 36 34 34 34 34 35 35 36 35 33 32 32 34 35 33 36 37 34 35 35 35 35 36 35 34 36 37 38 38 38 37 36 35 35 35 34
53 52 52 51 50 49 48 48 47 46 44 42 41 39 38 38 38 38 37 36 36 35 35 35 34 33 32 33 33 36 40 40 38 38 37 37 36 35 34 33 34 33 32 30 29 30 30 30 33 35 34 34 34 34 34 34 35 37 33 34 34 34 35 36 33 32 33 33 32 32 32 32 33 34 35 36 36 39 35 35 35 35 34 34 35
52 52 52 51 50 49 48 48 47 45 43 42 39 38 38 38 38 37 36 35 35 34 34 33 33 32 31 31 32 34 38 41 39 38 37 36 36 35 35 35 35 36 32 31 29 29 30 30 35 38 34 34 34 34 34 34 35 32 33 33 34 34 35 33 33 31 31 31 31 30 30 30 31 31 33 33 34 34 34 34 34 34 35 36 36
51 51 50 50 49 49 48 48 47 45 43 40 39 38 38 38 37 36 35 34 34 33 33 33 32 32 32 32 33 34 36 39 38 38 37 36 35 35 35 35 36 34 34 31 30 31 30 30 35 34 34 34 34 34 34 34 33 34 34 34 33 34 33 32 31 31 31 30 30 29 28 29 29 29 31 33 33 33 34 35 34 34 33 35 34
51 50 49 48 48 48 48 47 45 43 42 40 38 38 38 37 36 35 35 34 33 32 32 32 32 33 32 33 32 33 35 37 36 37 36 36 35 35 35 35 35 35 33 34 34 35 34 35 35 35 34 34 34 34 35 35 35 34 34 34 36 30 32 30 30 30 29 29 29 29 28 28 28 30 31 31 30 31 32 33 33 32 32 32 33
49 48 48 48 48 48 47 46 45 42 41 40 39 38 37 37 36 35 34 33 32 31 31 32 32 32 32 32 32 32 33 35 35 36 37 37 36 35 35 35 36 36 36 32 33 34 34 35 35 35 34 34 34 32 31 31 34 35 35 35 31 30 29 29 29 29 27 27 29 28 27 28 27 29 29 29 28 28 30 32 30 31 32 33 34
48 48 48 48 48 47 46 44 43 41 40 40 39 38 37 36 35 35 33 32 31 31 31 31 32 32 32 31 31 32 33 34 34 34 35 34 33 35 35 33 36 35 34 32 34 33 33 34 33 34 34 34 33 34 34 33 32 32 30 31 31 30 30 28 27 28 29 27 28 27 27 28 28 28 28 28 28 28 29 31 29 28 30 30 30
48 48 48 48 47 46 44 39 40 41 40 39 38 37 37 36 35 33 32 32 31 30 30 30 31 32 31 31 31 32 32 32 32 32 32 32 32 31 32 32 26 25 25 27 29 33 30 32 31 30 29 29 29 29 29 29 29 29 29 28 29 30 34 35 33 28 27 27 26 26 27 27 26 27 27 27 27 28 29 29 30 29 29 28 27
48 48 47 47 46 44 43 42 41 40 39 39 38 37 36 36 35 33 32 32 31 30 29 29 31 32 31 30 31 32 31 31 32 33 32 33 32 32 29 28 27 26 33 33 31 27 25 25 26 26 26 24 24 26 25 26 25 27 27 28 28 28 28 28 28 26 26 27 27 26 26 26 26 27 26 25 26 27 28 28 27 29 27 27 25
46 45 44 44 43 42 42 42 40 39 38 37 36 35 33 35 34 33 32 35 33 31 30 29 31 31 30 31 32 31 31 31 33 33 34 34 34 33 32 31 32 30 33 33 29 22 23 22 22 23 23 24 23 22 24 24 24 23 24 28 26 26 26 25 25 25 26 27 26 25 27 25 26 26 26 26 26 26 27 29 26 27 26 26 24
44 44 42 41 40 41 41 40 39 38 37 36 36 34 33 32 33 34 34 36 34 32 31 31 32 32 32 31 33 34 34 34 34 34 34 35 34 33 32 32 33 33 33 27 19 19 17 20 18 19 20 22 22 22 20 22 20 20 22 22 23 24 24 23 24 23 24 24 23 24 23 25 24 25 26 25 26 26 25 26 26 26 25 25 24
43 43 41 40 39 39 40 39 38 37 37 36 35 35 33 32 31 33 34 34 35 34 32 32 33 33 33 34 35 33 33 34 33 33 34 34 33 33 32 33 34 33 32 30 21 17 20 20 18 19 21 20 20 20 22 23 22 22 21 18 18 20 22 19 23 23 24 24 22 22 22 23 24 22 24 24 22 24 25 25 25 25 25 24 25
43 42 40 39 39 38 38 37 37 37 36 35 35 34 33 32 31 30 31 34 35 35 34 33 33 33 34 35 35 34 33 33 33 34 34 34 33 33 33 34 34 33 32 23 21 18 20 21 21 21 21 20 20 21 21 23 22 22 21 19 17 19 21 21 21 22 23 24 21 21 21 22 22 21 23 22 23 20 23 23 25 24 24 24 24
43 44 41 39 38 38 37 37 37 36 36 35 34 34 33 33 32 31 31 32 33 33 34 34 34 34 35 35 35 34 33 32 33 33 33 33 33 33 33 31 34 32 29 24 23 22 23 22 22 21 21 20 20 21 21 21 21 21 21 22 21 21 21 22 20 20 20 22 20 21 20 21 22 20 20 21 21 22 21 21 22 23 22 21 22
42 37 35 37 38 37 36 36 36 35 35 34 33 33 33 32 32 31 31 32 33 33 32 32 33 34 34 34 35 34 33 32 32 32 33 33 33 33 33 29 24 25 26 26 24 22 23 23 22 23 22 21 21 22 20 21 20 21 20 19 19 20 19 20 19 20 19 21 21 21 20 20 21 22 20 20 21 21 20 20 22 23 22 21 21
40 39 38 37 37 36 35 35 35 34 34 33 33 32 31 31 31 31 32 32 33 32 31 30 30 32 32 33 33 33 33 32 32 32 32 32 32 32 24 23 22 24 25 26 26 25 24 23 23 23 23 22 22 22 20 20 21 19 19 19 17 18 18 17 17 17 18 18 16 18 24 19 19 21 21 20 22 21 19 21 20 21 22 22 19
41 41 39 39 39 37 35 34 34 33 32 31 31 30 29 30 30 30 30 31 31 31 30 28 28 29 29 31 32 32 32 32 32 32 32 32 33 29 24 24 24 24 26 26 27 26 25 25 24 23 24 23 22 21 21 21 20 19 22 19 18 18 18 18 18 19 16 14 13 16 16 14 17 19 17 15 17 18 19 21 20 22 22 22 23
41 41 41 38 36 37 34 35 33 31 31 30 30 29 28 28 27 28 28 28 29 28 27 27 30 28 27 27 34 30 29 32 32 31 31 31 25 26 25 25 25 25 26 26 26 26 26 25 25 24 24 24 23 23 21 20 20 20 20 20 19 20 23 22 26 21 16 14 13 14 16 16 16 16 19 15 15 16 17 20 19 18 19 21 20
42 37 36 34 35 36 35 33 31 31 30 30 29 28 28 27 27 26 26 27 27 26 27 26 26 26 26 24 29 31 28 25 25 25 25 26 25 25 25 25 26 26 25 26 26 26 25 24 25 25 25 24 24 22 22 21 21 21 20 21 20 18 20 18 16 18 16 16 15 13 13 14 13 15 16 15 15 17 17 17 19 19 18 18 17
41 39 36 34 37 37 35 32 31 30 30 30 29 29 28 27 26 26 25 24 25 25 24 23 22 22 20 23 25 25 22 24 24 24 24 25 25 25 25 25 26 26 26 26 26 27 26 25 24 25 25 24 23 22 23 21 22 22 21 21 20 18 19 19 18 17 18 18 16 15 14 15 14 14 15 16 16 14 15 16 18 19 19 17 18
42 39 35 35 36 35 35 32 31 32 32 30 29 28 28 27 27 27 25 25 25 24 22 21 20 18 19 24 27 26 21 21 22 23 23 24 25 24 25 26 27 26 27 27 27 27 27 26 24 25 25 24 24 24 23 22 22 22 22 22 20 21 20 20 19 18 18 17 18 17 16 16 15 15 15 18 24 21 18 18 18 19 20 20 19
41 39 38 38 37 38 37 36 32 30 30 30 28 28 28 28 27 27 27 26 26 24 22 20 18 19 23 28 28 28 22 21 21 22 22 24 24 24 26 26 27 27 27 28 28 28 27 26 25 25 26 26 25 25 24 23 23 23 23 22 22 21 21 20 20 19 18 18 18 19 18 17 17 18 19 26 17 17 16 17 18 18 17 18 19
39 38 39 39 39 38 38 37 37 36 33 30 29 29 28 27 27 27 27 27 26 25 23 21 20 21 22 26 28 29 25 21 23 21 21 22 23 25 25 25 26 27 28 28 28 28 28 28 27 26 26 27 26 26 26 25 25 24 24 23 23 22 22 22 20 20 19 19 19 20 20 18 20 20 20 19 20 17 17 17 17 18 18 17 18
39 39 39 38 38 38 39 38 38 36 36 33 32 29 28 28 27 27 26 27 26 26 24 22 22 21 22 25 27 28 26 23 21 20 21 23 23 24 24 25 26 27 28 29 29 29 28 29 28 28 27 26 26 26 27 27 27 25 24 24 24 24 23 23 23 22 22 20 21 21 21 21 21 20 20 21 17 16 18 16 17 18 17 16 15
42 40 39 40 40 40 39 38 38 37 32 32 32 28 28 27 26 26 26 26 27 26 25 24 24 24 24 23 25 25 25 25 25 25 24 24 24 24 24 25 27 28 29 29 30 29 29 29 29 28 28 28 27 26 26 27 27 28 27 26 25 25 25 25 25 25 24 23 22 22 22 22 22 21 21 22 20 19 19 19 19 21 19 19 17
42 41 40 41 40 40 39 39 36 37 36 36 35 32 30 27 26 26 26 26 27 26 25 25 24 25 24 23 24 26 25 24 25 25 26 26 26 26 26 26 27 28 29 30 30 30 30 30 30 29 29 29 29 27 26 26 26 26 26 26 27 27 27 27 27 26 25 24 24 24 24 23 23 23 23 22 22 21 21 21 18 20 20 21 21
42 42 41 41 41 40 39 38 37 37 38 36 30 29 27 26 26 26 27 26 26 27 26 25 24 24 24 24 25 25 25 25 24 25 25 25 26 26 27 28 28 29 30 31 30 30 30 30 30 30 30 30 29 28 26 26 25 26 26 26 26 26 27 28 28 27 27 26 26 25 25 24 24 24 25 24 23 23 22 22 22 22 22 22 21
42 42 41 41 41 41 39 39 37 34 36 33 32 29 29 27 27 27 26 26 26 27 26 26 25 25 25 25 25 25 25 25 24 25 24 25 25 26 27 28 29 29 30 30 30 31 31 31 31 31 31 30 30 30 28 27 26 26 26 27 27 27 27 26 28 28 28 28 27 26 26 25 25 25 25 24 24 24 23 23 23 23 23 23 23
42 41 41 41 41 40 38 38 37 37 38 37 35 34 32 30 28 27 27 27 26 27 26 26 26 27 27 26 26 26 26 27 25 25 25 25 26 26 27 28 29 29 30 30 30 30 30 31 31 31 31 31 30 30 30 29 28 28 28 28 28 28 28 27 27 28 27 29 28 28 27 27 26 26 26 25 25 25 25 24 24 25 24 24 24
41 41 41 40 40 40 39 39 38 39 38 38 37 34 31 31 31 29 28 27 27 27 27 27 28 28 28 28 28 27 27 27 26 26 26 26 26 27 27 28 28 28 29 29 29 30 30 30 31 31 31 31 31 31 30 30 30 30 29 29 29 29 29 28 28 28 28 29 29 29 28 28 27 27 27 27 26 26 25 25 25 25 25 24 24
40 40 40 40 40 40 40 39 39 39 40 38 38 35 33 31 30 31 30 29 28 28 28 27 30 28 29 29 29 28 28 27 27 27 27 27 27 27 28 28 29 29 29 29 29 29 29 30 30 31 31 31 31 31 31 31 31 30 30 30 30 30 29 29 29 28 28 28 29 29 28 28 28 28 27 27 27 26 27 27 26 26 26 25 25